Location: Recife
(8.0585°S, 34.8848°W)
Time: 12:16:01
(UTC-03:00)

Vanguard 1 - Pass Details

Date: 20 April 2026
Orbit: 654 x 3817 km, 34.3° (Epoch: 11 May)

Event Time Altitude Azimuth Distance (km) Brightness Sun altitude
Rises 17:59:14 0° 243° (WSW) 4,816 14.5 -11.6°
Reaches altitude 10° 18:01:51 10° 246° (WSW) 4,140 14.1 -12.2°
Maximum altitude 18:13:46 66° 325° (NW) 2,861 12.5 -15.1°
Drops below altitude 10° 18:34:39 10° 43° (NE) 6,754 14.0 -20.2°
Sets 18:40:27 0° 46° (NE) 7,918 14.3 -21.6°
